Year,Month,Day,Hour,Minute,Value (Times are PST for windgust in km/hr)
2012,09,07,00,43,1.60
2012,09,07,00,45,1.60
2012,09,07,00,46,1.60
2012,09,07,00,48,3.20
2012,09,07,00,49,3.20
2012,09,07,00,57,1.60
2012,09,07,01,01,3.20
2012,09,07,01,02,1.60
2012,09,07,01,03,1.60
2012,09,07,01,07,3.20
2012,09,07,01,13,1.60
2012,09,07,01,18,1.60
2012,09,07,01,20,1.60
2012,09,07,02,00,3.20
2012,09,07,02,01,3.20
2012,09,07,02,06,3.20
2012,09,07,02,07,1.60
2012,09,07,02,08,3.20
2012,09,07,02,09,3.20
2012,09,07,02,10,1.60
2012,09,07,02,16,1.60
2012,09,07,02,18,1.60
2012,09,07,02,19,1.60
2012,09,07,02,20,1.60
2012,09,07,02,21,3.20
2012,09,07,02,22,1.60
2012,09,07,02,26,3.20
2012,09,07,02,27,3.20
2012,09,07,02,28,3.20
2012,09,07,02,29,3.20
2012,09,07,02,30,1.60
2012,09,07,02,31,4.80
2012,09,07,02,32,4.80
2012,09,07,02,33,4.80
2012,09,07,02,34,4.80
2012,09,07,02,35,3.20
2012,09,07,02,36,3.20
2012,09,07,02,38,1.60
2012,09,07,02,39,3.20
2012,09,07,02,40,3.20
2012,09,07,02,41,3.20
2012,09,07,02,42,1.60
2012,09,07,02,44,3.20
2012,09,07,02,45,4.80
2012,09,07,02,46,3.20
2012,09,07,02,47,1.60
2012,09,07,02,48,3.20
2012,09,07,02,49,1.60
2012,09,07,02,50,3.20
2012,09,07,02,52,3.20
2012,09,07,02,53,3.20
2012,09,07,02,54,3.20
2012,09,07,02,55,1.60
2012,09,07,02,57,1.60
2012,09,07,02,58,3.20
2012,09,07,02,59,3.20
2012,09,07,03,01,3.20
2012,09,07,03,02,4.80
2012,09,07,03,03,3.20
2012,09,07,03,06,3.20
2012,09,07,03,07,3.20
2012,09,07,03,10,4.80
2012,09,07,03,11,3.20
2012,09,07,03,12,1.60
2012,09,07,03,13,3.20
2012,09,07,03,14,3.20
2012,09,07,03,15,3.20
2012,09,07,03,16,1.60
2012,09,07,03,17,3.20
2012,09,07,03,18,1.60
2012,09,07,03,19,3.20
2012,09,07,03,20,1.60
2012,09,07,03,23,3.20
2012,09,07,03,24,1.60
2012,09,07,03,26,1.60
2012,09,07,03,27,1.60
2012,09,07,03,28,1.60
2012,09,07,03,29,3.20
2012,09,07,03,30,3.20
2012,09,07,03,31,1.60
2012,09,07,03,32,3.20
2012,09,07,03,33,3.20
2012,09,07,03,34,3.20
2012,09,07,03,35,3.20
2012,09,07,03,36,4.80
2012,09,07,03,37,1.60
2012,09,07,03,38,3.20
2012,09,07,03,39,3.20
2012,09,07,03,40,1.60
2012,09,07,03,41,3.20
2012,09,07,03,42,3.20
2012,09,07,03,43,3.20
2012,09,07,03,44,3.20
2012,09,07,03,45,3.20
2012,09,07,03,46,3.20
2012,09,07,03,47,3.20
2012,09,07,03,48,1.60
2012,09,07,03,49,1.60
2012,09,07,03,50,4.80
2012,09,07,03,51,4.80
2012,09,07,03,52,1.60
2012,09,07,04,11,1.60
2012,09,07,04,13,3.20
2012,09,07,04,14,1.60
2012,09,07,04,15,1.60
2012,09,07,04,17,3.20
2012,09,07,04,18,3.20
2012,09,07,04,19,3.20
2012,09,07,04,20,3.20
2012,09,07,04,21,1.60
2012,09,07,04,22,1.60
2012,09,07,04,25,3.20
2012,09,07,04,26,3.20
2012,09,07,04,27,1.60
2012,09,07,04,30,1.60
2012,09,07,04,31,3.20
2012,09,07,04,32,3.20
2012,09,07,04,33,1.60
2012,09,07,04,34,3.20
2012,09,07,04,36,3.20
2012,09,07,04,37,1.60
2012,09,07,04,40,3.20
2012,09,07,04,41,3.20
2012,09,07,04,42,1.60
2012,09,07,04,44,3.20
2012,09,07,04,45,3.20
2012,09,07,04,46,1.60
2012,09,07,04,47,1.60
2012,09,07,04,51,1.60
2012,09,07,04,54,3.20
2012,09,07,04,55,1.60
2012,09,07,05,08,1.60
2012,09,07,05,09,3.20
2012,09,07,05,20,1.60
2012,09,07,05,21,1.60
2012,09,07,05,30,1.60
2012,09,07,05,31,3.20
2012,09,07,05,32,1.60
2012,09,07,05,39,3.20
2012,09,07,05,40,3.20
2012,09,07,05,45,3.20
2012,09,07,05,46,3.20
2012,09,07,05,47,3.20
2012,09,07,05,48,1.60
2012,09,07,05,49,3.20
2012,09,07,05,50,1.60
2012,09,07,05,51,3.20
2012,09,07,05,52,1.60
2012,09,07,05,53,3.20
2012,09,07,05,54,3.20
2012,09,07,05,55,1.60
2012,09,07,05,56,3.20
2012,09,07,05,57,1.60
2012,09,07,05,58,3.20
2012,09,07,05,59,1.60
2012,09,07,06,01,1.60
2012,09,07,06,02,1.60
2012,09,07,06,03,3.20
2012,09,07,06,06,3.20
2012,09,07,06,07,3.20
2012,09,07,06,08,3.20
2012,09,07,06,09,3.20
2012,09,07,06,10,1.60
2012,09,07,06,16,3.20
2012,09,07,06,17,3.20
2012,09,07,06,18,1.60
2012,09,07,06,19,1.60
2012,09,07,06,21,1.60
2012,09,07,06,26,3.20
2012,09,07,06,27,3.20
2012,09,07,06,28,3.20
2012,09,07,06,29,1.60
2012,09,07,06,30,4.80
2012,09,07,06,31,4.80
2012,09,07,06,32,3.20
2012,09,07,06,33,3.20
2012,09,07,06,34,3.20
2012,09,07,06,35,4.80
2012,09,07,06,36,4.80
2012,09,07,06,37,4.80
2012,09,07,06,38,4.80
2012,09,07,06,39,4.80
2012,09,07,06,40,4.80
2012,09,07,06,41,4.80
2012,09,07,06,42,4.80
2012,09,07,06,43,6.40
2012,09,07,06,44,3.20
2012,09,07,06,45,3.20
2012,09,07,06,46,3.20
2012,09,07,06,47,1.60
2012,09,07,06,53,3.20
2012,09,07,06,54,1.60
2012,09,07,06,56,1.60
2012,09,07,06,57,3.20
2012,09,07,07,01,3.20
2012,09,07,07,02,3.20
2012,09,07,07,03,3.20
2012,09,07,07,05,3.20
2012,09,07,07,06,4.80
2012,09,07,07,07,3.20
2012,09,07,07,08,3.20
2012,09,07,07,09,3.20
2012,09,07,07,11,3.20
2012,09,07,07,12,3.20
2012,09,07,07,13,4.80
2012,09,07,07,14,1.60
2012,09,07,07,15,3.20
2012,09,07,07,16,1.60
2012,09,07,07,17,1.60
2012,09,07,07,18,1.60
2012,09,07,07,19,3.20
2012,09,07,07,22,1.60
2012,09,07,07,23,3.20
2012,09,07,07,24,1.60
2012,09,07,07,25,3.20
2012,09,07,07,26,3.20
2012,09,07,07,27,3.20
2012,09,07,07,28,3.20
2012,09,07,07,29,3.20
2012,09,07,07,30,3.20
2012,09,07,07,32,1.60
2012,09,07,07,33,3.20
2012,09,07,07,34,1.60
2012,09,07,07,35,3.20
2012,09,07,07,36,3.20
2012,09,07,07,37,4.80
2012,09,07,07,38,1.60
2012,09,07,07,39,1.60
2012,09,07,07,40,4.80
2012,09,07,07,41,4.80
2012,09,07,07,42,3.20
2012,09,07,07,43,3.20
2012,09,07,07,44,3.20
2012,09,07,07,45,3.20
2012,09,07,07,46,3.20
2012,09,07,07,47,3.20
2012,09,07,07,48,3.20
2012,09,07,07,49,1.60
2012,09,07,07,50,3.20
2012,09,07,07,51,3.20
2012,09,07,07,54,1.60
2012,09,07,07,55,1.60
2012,09,07,07,56,1.60
2012,09,07,08,03,3.20
2012,09,07,08,04,3.20
2012,09,07,08,05,3.20
2012,09,07,08,06,3.20
2012,09,07,08,07,1.60
2012,09,07,08,08,1.60
2012,09,07,08,09,3.20
2012,09,07,08,10,1.60
2012,09,07,08,12,3.20
2012,09,07,08,13,3.20
2012,09,07,08,14,3.20
2012,09,07,08,15,3.20
2012,09,07,08,16,4.80
2012,09,07,08,17,4.80
2012,09,07,08,18,6.40
2012,09,07,08,19,6.40
2012,09,07,08,20,8.10
2012,09,07,08,21,8.10
2012,09,07,08,22,9.60
2012,09,07,08,23,8.10
2012,09,07,08,24,8.10
2012,09,07,08,25,9.60
2012,09,07,08,26,8.10
2012,09,07,08,27,8.10
2012,09,07,08,28,8.10
2012,09,07,08,29,8.10
2012,09,07,08,30,8.10
2012,09,07,08,31,8.10
2012,09,07,08,32,6.40
2012,09,07,08,33,6.40
2012,09,07,08,34,8.10
2012,09,07,08,35,6.40
2012,09,07,08,36,4.80
2012,09,07,08,37,6.40
2012,09,07,08,38,9.60
2012,09,07,08,39,8.10
2012,09,07,08,40,8.10
2012,09,07,08,41,8.10
2012,09,07,08,42,6.40
2012,09,07,08,43,8.10
2012,09,07,08,44,9.60
2012,09,07,08,45,8.10
2012,09,07,08,46,9.60
2012,09,07,08,47,9.60
2012,09,07,08,48,9.60
2012,09,07,08,49,9.60
2012,09,07,08,50,11.30
2012,09,07,08,51,9.60
2012,09,07,08,52,11.30
2012,09,07,08,53,12.90
2012,09,07,08,54,11.30
2012,09,07,08,55,8.10
2012,09,07,08,56,9.60
2012,09,07,08,57,12.90
2012,09,07,08,58,9.60
2012,09,07,08,59,11.30
2012,09,07,09,00,14.50
2012,09,07,09,01,8.10
2012,09,07,09,02,9.60
2012,09,07,09,03,9.60
2012,09,07,09,04,9.60
2012,09,07,09,05,6.40
2012,09,07,09,06,9.60
2012,09,07,09,07,8.10
2012,09,07,09,08,11.30
2012,09,07,09,09,9.60
2012,09,07,09,10,9.60
2012,09,07,09,11,16.10
2012,09,07,09,12,6.40
2012,09,07,09,13,11.30
2012,09,07,09,14,9.60
2012,09,07,09,15,11.30
2012,09,07,09,16,14.50
2012,09,07,09,17,12.90
2012,09,07,09,18,9.60
2012,09,07,09,19,14.50
2012,09,07,09,20,14.50
2012,09,07,09,21,16.10
2012,09,07,09,22,11.30
2012,09,07,09,23,11.30
2012,09,07,09,24,8.10
2012,09,07,09,25,6.40
2012,09,07,09,26,11.30
2012,09,07,09,27,11.30
2012,09,07,09,28,8.10
2012,09,07,09,29,6.40
2012,09,07,09,30,8.10
2012,09,07,09,31,6.40
2012,09,07,09,32,11.30
2012,09,07,09,33,11.30
2012,09,07,09,34,9.60
2012,09,07,09,35,9.60
2012,09,07,09,36,9.60
2012,09,07,09,37,8.10
2012,09,07,09,38,11.30
2012,09,07,09,39,11.30
2012,09,07,09,40,9.60
2012,09,07,09,41,8.10
2012,09,07,09,42,8.10
2012,09,07,09,43,9.60
2012,09,07,09,44,8.10
2012,09,07,09,45,6.40
2012,09,07,09,46,4.80
2012,09,07,09,47,4.80
2012,09,07,09,48,8.10
2012,09,07,09,49,9.60
2012,09,07,09,50,11.30
2012,09,07,09,51,8.10
2012,09,07,09,52,8.10
2012,09,07,09,53,9.60
2012,09,07,09,54,8.10
2012,09,07,09,55,6.40
2012,09,07,09,56,9.60
2012,09,07,09,57,9.60
2012,09,07,09,58,9.60
2012,09,07,09,59,9.60
2012,09,07,10,00,8.10
2012,09,07,10,01,4.80
2012,09,07,10,02,8.10
2012,09,07,10,03,9.60
2012,09,07,10,04,8.10
2012,09,07,10,05,8.10
2012,09,07,10,06,8.10
2012,09,07,10,07,6.40
2012,09,07,10,08,6.40
2012,09,07,10,09,8.10
2012,09,07,10,10,4.80
2012,09,07,10,11,3.20
2012,09,07,10,12,3.20
2012,09,07,10,13,3.20
2012,09,07,10,14,4.80
2012,09,07,10,15,3.20
2012,09,07,10,16,4.80
2012,09,07,10,17,6.40
2012,09,07,10,18,4.80
2012,09,07,10,19,4.80
2012,09,07,10,20,6.40
2012,09,07,10,21,8.10
2012,09,07,10,22,4.80
2012,09,07,10,23,6.40
2012,09,07,10,24,8.10
2012,09,07,10,25,3.20
2012,09,07,10,26,4.80
2012,09,07,10,27,8.10
2012,09,07,10,28,4.80
2012,09,07,10,29,3.20
2012,09,07,10,30,4.80
2012,09,07,10,31,4.80
2012,09,07,10,32,6.40
2012,09,07,10,33,6.40
2012,09,07,10,34,6.40
2012,09,07,10,35,8.10
2012,09,07,10,36,8.10
2012,09,07,10,37,6.40
2012,09,07,10,38,6.40
2012,09,07,10,39,4.80
2012,09,07,10,40,6.40
2012,09,07,10,41,6.40
2012,09,07,10,42,4.80
2012,09,07,10,43,6.40
2012,09,07,10,44,6.40
2012,09,07,10,45,6.40
2012,09,07,10,46,4.80
2012,09,07,10,47,4.80
2012,09,07,10,48,8.10
2012,09,07,10,49,8.10
2012,09,07,10,50,8.10
2012,09,07,10,51,8.10
2012,09,07,10,52,6.40
2012,09,07,10,53,4.80
2012,09,07,10,54,4.80
2012,09,07,10,55,4.80
2012,09,07,10,56,4.80
2012,09,07,10,57,4.80
2012,09,07,10,58,4.80
2012,09,07,10,59,4.80
2012,09,07,11,00,4.80
2012,09,07,11,01,6.40
2012,09,07,11,02,6.40
2012,09,07,11,03,6.40
2012,09,07,11,04,6.40
2012,09,07,11,05,6.40
2012,09,07,11,06,8.10
2012,09,07,11,07,6.40
2012,09,07,11,08,4.80
2012,09,07,11,09,8.10
2012,09,07,11,10,4.80
2012,09,07,11,11,1.60
2012,09,07,11,12,3.20
2012,09,07,11,13,6.40
2012,09,07,11,14,4.80
2012,09,07,11,15,6.40
2012,09,07,11,16,6.40
2012,09,07,11,17,4.80
2012,09,07,11,18,6.40
2012,09,07,11,19,8.10
2012,09,07,11,20,8.10
2012,09,07,11,21,8.10
2012,09,07,11,22,6.40
2012,09,07,11,23,8.10
2012,09,07,11,24,6.40
2012,09,07,11,25,4.80
2012,09,07,11,26,6.40
2012,09,07,11,27,6.40
2012,09,07,11,28,4.80
2012,09,07,11,29,8.10
2012,09,07,11,30,4.80
2012,09,07,11,31,4.80
2012,09,07,11,32,4.80
2012,09,07,11,33,6.40
2012,09,07,11,34,4.80
2012,09,07,11,35,6.40
2012,09,07,11,36,4.80
2012,09,07,11,37,4.80
2012,09,07,11,38,6.40
2012,09,07,11,39,8.10
2012,09,07,11,40,8.10
2012,09,07,11,41,6.40
2012,09,07,11,42,8.10
2012,09,07,11,43,8.10
2012,09,07,11,44,8.10
2012,09,07,11,45,8.10
2012,09,07,11,46,8.10
2012,09,07,11,47,6.40
2012,09,07,11,48,9.60
2012,09,07,11,49,8.10
2012,09,07,11,50,8.10
2012,09,07,11,51,6.40
2012,09,07,11,52,6.40
2012,09,07,11,53,3.20
2012,09,07,11,54,8.10
2012,09,07,11,55,8.10
2012,09,07,11,56,4.80
2012,09,07,11,57,6.40
2012,09,07,11,58,6.40
2012,09,07,11,59,6.40
2012,09,07,12,00,6.40
2012,09,07,12,01,6.40
2012,09,07,12,02,4.80
2012,09,07,12,03,8.10
2012,09,07,12,04,6.40
2012,09,07,12,05,9.60
2012,09,07,12,06,6.40
2012,09,07,12,07,9.60
2012,09,07,12,08,6.40
2012,09,07,12,09,9.60
2012,09,07,12,10,8.10
2012,09,07,12,11,8.10
2012,09,07,12,12,8.10
2012,09,07,12,13,8.10
2012,09,07,12,14,9.60
2012,09,07,12,15,6.40
2012,09,07,12,16,6.40
2012,09,07,12,17,6.40
2012,09,07,12,18,8.10
2012,09,07,12,19,6.40
2012,09,07,12,20,8.10
2012,09,07,12,21,6.40
2012,09,07,12,22,9.60
2012,09,07,12,23,8.10
2012,09,07,12,24,9.60
2012,09,07,12,25,8.10
2012,09,07,12,26,8.10
2012,09,07,12,27,4.80
2012,09,07,12,28,4.80
2012,09,07,12,29,4.80
2012,09,07,12,30,9.60
2012,09,07,12,31,6.40
2012,09,07,12,32,6.40
2012,09,07,12,33,4.80
2012,09,07,12,34,6.40
2012,09,07,12,35,8.10
2012,09,07,12,36,6.40
2012,09,07,12,37,9.60
2012,09,07,12,38,8.10
2012,09,07,12,39,6.40
2012,09,07,12,40,6.40
2012,09,07,12,41,6.40
2012,09,07,12,42,6.40
2012,09,07,12,43,8.10
2012,09,07,12,44,8.10
2012,09,07,12,45,6.40
2012,09,07,12,46,6.40
2012,09,07,12,47,8.10
2012,09,07,12,48,8.10
2012,09,07,12,49,6.40
2012,09,07,12,50,8.10
2012,09,07,12,51,8.10
2012,09,07,12,52,8.10
2012,09,07,12,53,4.80
2012,09,07,12,54,6.40
2012,09,07,12,55,4.80
2012,09,07,12,56,6.40
2012,09,07,12,57,8.10
2012,09,07,12,58,8.10
2012,09,07,12,59,6.40
2012,09,07,13,00,6.40
2012,09,07,13,01,8.10
2012,09,07,13,02,8.10
2012,09,07,13,03,8.10
2012,09,07,13,04,4.80
2012,09,07,13,05,8.10
2012,09,07,13,06,8.10
2012,09,07,13,07,8.10
2012,09,07,13,08,8.10
2012,09,07,13,09,6.40
2012,09,07,13,10,8.10
2012,09,07,13,11,8.10
2012,09,07,13,12,6.40
2012,09,07,13,13,8.10
2012,09,07,13,14,8.10
2012,09,07,13,15,6.40
2012,09,07,13,16,8.10
2012,09,07,13,17,6.40
2012,09,07,13,18,8.10
2012,09,07,13,19,8.10
2012,09,07,13,20,8.10
2012,09,07,13,21,6.40
2012,09,07,13,22,6.40
2012,09,07,13,23,9.60
2012,09,07,13,24,4.80
2012,09,07,13,25,6.40
2012,09,07,13,26,8.10
2012,09,07,13,27,8.10
2012,09,07,13,28,6.40
2012,09,07,13,29,8.10
2012,09,07,13,30,6.40
2012,09,07,13,31,6.40
2012,09,07,13,32,8.10
2012,09,07,13,33,6.40
2012,09,07,13,34,8.10
2012,09,07,13,35,8.10
2012,09,07,13,36,8.10
2012,09,07,13,37,6.40
2012,09,07,13,38,8.10
2012,09,07,13,39,6.40
2012,09,07,13,40,8.10
2012,09,07,13,41,8.10
2012,09,07,13,42,9.60
2012,09,07,13,43,8.10
2012,09,07,13,44,9.60
2012,09,07,13,45,8.10
2012,09,07,13,46,8.10
2012,09,07,13,47,9.60
2012,09,07,13,48,8.10
2012,09,07,13,49,8.10
2012,09,07,13,50,8.10
2012,09,07,13,51,4.80
2012,09,07,13,52,9.60
2012,09,07,13,53,9.60
2012,09,07,13,54,6.40
2012,09,07,13,55,6.40
2012,09,07,13,56,6.40
2012,09,07,13,57,8.10
2012,09,07,13,58,9.60
2012,09,07,13,59,9.60
2012,09,07,14,00,9.60
2012,09,07,14,01,8.10
2012,09,07,14,02,9.60
2012,09,07,14,03,8.10
2012,09,07,14,04,6.40
2012,09,07,14,05,8.10
2012,09,07,14,06,11.30
2012,09,07,14,07,9.60
2012,09,07,14,08,8.10
2012,09,07,14,09,9.60
2012,09,07,14,10,8.10
2012,09,07,14,11,4.80
2012,09,07,14,12,6.40
2012,09,07,14,13,6.40
2012,09,07,14,14,8.10
2012,09,07,14,15,8.10
2012,09,07,14,16,8.10
2012,09,07,14,17,8.10
2012,09,07,14,18,11.30
2012,09,07,14,19,11.30
2012,09,07,14,20,9.60
2012,09,07,14,21,9.60
2012,09,07,14,22,8.10
2012,09,07,14,23,8.10
2012,09,07,14,24,9.60
2012,09,07,14,25,8.10
2012,09,07,14,26,8.10
2012,09,07,14,27,9.60
2012,09,07,14,28,9.60
2012,09,07,14,29,8.10
2012,09,07,14,30,6.40
2012,09,07,14,31,8.10
2012,09,07,14,32,8.10
2012,09,07,14,33,8.10
2012,09,07,14,34,6.40
2012,09,07,14,35,8.10
2012,09,07,14,36,11.30
2012,09,07,14,37,9.60
2012,09,07,14,38,6.40
2012,09,07,14,39,6.40
2012,09,07,14,40,4.80
2012,09,07,14,41,4.80
2012,09,07,14,42,6.40
2012,09,07,14,43,3.20
2012,09,07,14,44,4.80
2012,09,07,14,45,8.10
2012,09,07,14,46,6.40
2012,09,07,14,47,6.40
2012,09,07,14,48,6.40
2012,09,07,14,49,4.80
2012,09,07,14,50,4.80
2012,09,07,14,51,4.80
2012,09,07,14,52,6.40
2012,09,07,14,53,9.60
2012,09,07,14,54,9.60
2012,09,07,14,55,6.40
2012,09,07,14,56,4.80
2012,09,07,14,57,4.80
2012,09,07,14,58,4.80
2012,09,07,14,59,6.40
2012,09,07,15,00,8.10
2012,09,07,15,01,6.40
2012,09,07,15,02,6.40
2012,09,07,15,03,6.40
2012,09,07,15,04,4.80
2012,09,07,15,05,6.40
2012,09,07,15,06,8.10
2012,09,07,15,07,4.80
2012,09,07,15,08,6.40
2012,09,07,15,09,6.40
2012,09,07,15,10,6.40
2012,09,07,15,11,8.10
2012,09,07,15,12,6.40
2012,09,07,15,13,8.10
2012,09,07,15,14,9.60
2012,09,07,15,15,9.60
2012,09,07,15,16,8.10
2012,09,07,15,17,6.40
2012,09,07,15,18,8.10
2012,09,07,15,19,8.10
2012,09,07,15,20,8.10
2012,09,07,15,21,6.40
2012,09,07,15,22,4.80
2012,09,07,15,23,6.40
2012,09,07,15,24,6.40
2012,09,07,15,25,6.40
2012,09,07,15,26,6.40
2012,09,07,15,27,8.10
2012,09,07,15,28,6.40
2012,09,07,15,29,6.40
2012,09,07,15,30,8.10
2012,09,07,15,31,8.10
2012,09,07,15,32,6.40
2012,09,07,15,33,6.40
2012,09,07,15,34,9.60
2012,09,07,15,35,8.10
2012,09,07,15,36,4.80
2012,09,07,15,37,8.10
2012,09,07,15,38,8.10
2012,09,07,15,39,8.10
2012,09,07,15,40,6.40
2012,09,07,15,41,8.10
2012,09,07,15,42,8.10
2012,09,07,15,43,8.10
2012,09,07,15,44,6.40
2012,09,07,15,45,9.60
2012,09,07,15,46,6.40
2012,09,07,15,47,8.10
2012,09,07,15,48,6.40
2012,09,07,15,49,6.40
2012,09,07,15,50,3.20
2012,09,07,15,51,6.40
2012,09,07,15,52,6.40
2012,09,07,15,53,8.10
2012,09,07,15,54,8.10
2012,09,07,15,55,6.40
2012,09,07,15,56,6.40
2012,09,07,15,57,6.40
2012,09,07,15,58,6.40
2012,09,07,15,59,6.40
2012,09,07,16,00,6.40
2012,09,07,16,01,6.40
2012,09,07,16,02,4.80
2012,09,07,16,03,6.40
2012,09,07,16,04,4.80
2012,09,07,16,05,4.80
2012,09,07,16,06,6.40
2012,09,07,16,07,3.20
2012,09,07,16,08,3.20
2012,09,07,16,09,4.80
2012,09,07,16,10,4.80
2012,09,07,16,11,6.40
2012,09,07,16,12,4.80
2012,09,07,16,13,6.40
2012,09,07,16,14,6.40
2012,09,07,16,15,3.20
2012,09,07,16,16,3.20
2012,09,07,16,17,4.80
2012,09,07,16,18,4.80
2012,09,07,16,19,6.40
2012,09,07,16,20,4.80
2012,09,07,16,21,8.10
2012,09,07,16,22,4.80
2012,09,07,16,23,6.40
2012,09,07,16,24,4.80
2012,09,07,16,25,4.80
2012,09,07,16,26,4.80
2012,09,07,16,27,3.20
2012,09,07,16,28,3.20
2012,09,07,16,29,4.80
2012,09,07,16,30,4.80
2012,09,07,16,31,4.80
2012,09,07,16,32,4.80
2012,09,07,16,33,4.80
2012,09,07,16,34,4.80
2012,09,07,16,35,6.40
2012,09,07,16,36,4.80
2012,09,07,16,37,3.20
2012,09,07,16,38,6.40
2012,09,07,16,39,6.40
2012,09,07,16,40,6.40
2012,09,07,16,41,6.40
2012,09,07,16,42,4.80
2012,09,07,16,43,4.80
2012,09,07,16,44,3.20
2012,09,07,16,45,4.80
2012,09,07,16,46,6.40
2012,09,07,16,47,6.40
2012,09,07,16,48,4.80
2012,09,07,16,49,6.40
2012,09,07,16,50,6.40
2012,09,07,16,51,4.80
2012,09,07,16,52,4.80
2012,09,07,16,53,6.40
2012,09,07,16,54,4.80
2012,09,07,16,55,4.80
2012,09,07,16,56,3.20
2012,09,07,16,57,4.80
2012,09,07,16,58,4.80
2012,09,07,16,59,4.80
2012,09,07,17,00,4.80
2012,09,07,17,01,4.80
2012,09,07,17,02,4.80
2012,09,07,17,03,3.20
2012,09,07,17,04,3.20
2012,09,07,17,05,1.60
2012,09,07,17,06,4.80
2012,09,07,17,07,4.80
2012,09,07,17,08,6.40
2012,09,07,17,09,6.40
2012,09,07,17,10,9.60
2012,09,07,17,11,6.40
2012,09,07,17,12,4.80
2012,09,07,17,13,4.80
2012,09,07,17,14,4.80
2012,09,07,17,15,4.80
2012,09,07,17,16,4.80
2012,09,07,17,17,6.40
2012,09,07,17,18,4.80
2012,09,07,17,19,4.80
2012,09,07,17,20,4.80
2012,09,07,17,21,6.40
2012,09,07,17,22,4.80
2012,09,07,17,23,3.20
2012,09,07,17,24,3.20
2012,09,07,17,25,4.80
2012,09,07,17,26,4.80
2012,09,07,17,27,4.80
2012,09,07,17,28,4.80
2012,09,07,17,29,6.40
2012,09,07,17,30,4.80
2012,09,07,17,31,4.80
2012,09,07,17,32,4.80
2012,09,07,17,33,4.80
2012,09,07,17,34,4.80
2012,09,07,17,35,4.80
2012,09,07,17,36,6.40
2012,09,07,17,37,3.20
2012,09,07,17,38,4.80
2012,09,07,17,39,3.20
2012,09,07,17,40,4.80
2012,09,07,17,41,3.20
2012,09,07,17,42,3.20
2012,09,07,17,43,3.20
2012,09,07,17,44,3.20
2012,09,07,17,45,3.20
2012,09,07,17,46,3.20
2012,09,07,17,47,6.40
2012,09,07,17,48,6.40
2012,09,07,17,49,6.40
2012,09,07,17,50,4.80
2012,09,07,17,51,4.80
2012,09,07,17,52,4.80
2012,09,07,17,53,4.80
2012,09,07,17,54,4.80
2012,09,07,17,55,4.80
2012,09,07,17,56,3.20
2012,09,07,17,57,3.20
2012,09,07,17,58,3.20
2012,09,07,17,59,3.20
2012,09,07,18,00,4.80
2012,09,07,18,01,4.80
2012,09,07,18,02,4.80
2012,09,07,18,03,3.20
2012,09,07,18,04,3.20
2012,09,07,18,05,4.80
2012,09,07,18,06,3.20
2012,09,07,18,07,1.60
2012,09,07,18,08,4.80
2012,09,07,18,09,3.20
2012,09,07,18,10,3.20
2012,09,07,18,11,1.60
2012,09,07,18,12,3.20
2012,09,07,18,13,3.20
2012,09,07,18,14,3.20
2012,09,07,18,15,3.20
2012,09,07,18,16,3.20
2012,09,07,18,17,4.80
2012,09,07,18,18,3.20
2012,09,07,18,19,4.80
2012,09,07,18,20,4.80
2012,09,07,18,21,3.20
2012,09,07,18,22,1.60
2012,09,07,18,23,1.60
2012,09,07,18,24,1.60
2012,09,07,18,25,3.20
2012,09,07,18,26,1.60
2012,09,07,18,27,1.60
2012,09,07,18,28,1.60
2012,09,07,18,29,1.60
2012,09,07,18,30,3.20
2012,09,07,18,31,1.60
2012,09,07,18,32,1.60
2012,09,07,18,33,3.20
2012,09,07,18,34,3.20
2012,09,07,18,35,3.20
2012,09,07,18,36,1.60
2012,09,07,18,38,1.60
2012,09,07,18,42,1.60
2012,09,07,18,43,1.60
2012,09,07,18,44,1.60
2012,09,07,18,45,1.60
2012,09,07,18,46,1.60
2012,09,07,18,48,1.60
2012,09,07,18,55,1.60
2012,09,07,18,56,1.60
2012,09,07,18,57,1.60
2012,09,07,18,58,1.60
2012,09,07,19,05,1.60
2012,09,07,19,07,1.60
2012,09,07,19,08,1.60
2012,09,07,19,09,1.60
2012,09,07,19,10,1.60
2012,09,07,19,11,1.60
2012,09,07,19,13,1.60
2012,09,07,19,14,1.60
2012,09,07,19,15,1.60
2012,09,07,19,16,1.60
2012,09,07,19,17,1.60
2012,09,07,19,18,1.60
2012,09,07,19,19,3.20
2012,09,07,19,20,3.20
2012,09,07,19,21,3.20
2012,09,07,19,22,4.80
2012,09,07,19,23,3.20
2012,09,07,19,24,1.60
2012,09,07,19,29,1.60
2012,09,07,19,32,1.60
2012,09,07,19,33,1.60
2012,09,07,19,34,1.60
2012,09,07,19,35,1.60
2012,09,07,19,47,1.60
2012,09,07,19,51,3.20
2012,09,07,19,52,3.20
2012,09,07,19,54,1.60
2012,09,07,19,55,1.60
2012,09,07,19,56,1.60
2012,09,07,20,02,1.60
2012,09,07,20,05,1.60
2012,09,07,20,06,3.20
2012,09,07,20,07,3.20
2012,09,07,20,09,1.60
2012,09,07,20,10,1.60
2012,09,07,20,11,1.60
2012,09,07,20,13,1.60
2012,09,07,20,18,1.60
2012,09,07,20,19,1.60
2012,09,07,20,20,1.60
2012,09,07,20,21,1.60
2012,09,07,20,22,1.60
2012,09,07,20,23,1.60
2012,09,07,20,24,1.60
2012,09,07,20,25,1.60
2012,09,07,20,34,3.20
2012,09,07,20,35,3.20
2012,09,07,20,36,1.60
2012,09,07,20,45,1.60
2012,09,07,20,46,1.60
2012,09,07,20,49,1.60
2012,09,07,21,14,1.60
2012,09,07,21,21,1.60
2012,09,07,21,30,1.60
2012,09,07,21,38,1.60
2012,09,07,21,40,1.60
2012,09,07,21,44,1.60
2012,09,07,21,45,3.20
2012,09,07,21,46,3.20
2012,09,07,21,47,3.20
2012,09,07,21,48,3.20
2012,09,07,21,49,1.60
2012,09,07,21,50,1.60
2012,09,07,21,52,1.60
2012,09,07,21,54,1.60
2012,09,07,21,55,3.20
2012,09,07,21,56,3.20
2012,09,07,21,57,3.20
2012,09,07,21,58,1.60
2012,09,07,22,01,1.60
2012,09,07,22,02,1.60
2012,09,07,22,04,3.20
2012,09,07,22,08,1.60
2012,09,07,22,09,1.60
2012,09,07,22,10,1.60
2012,09,07,22,11,1.60
2012,09,07,22,35,3.20
2012,09,07,22,36,3.20
2012,09,07,22,37,3.20
2012,09,07,22,39,1.60
2012,09,07,22,40,1.60
2012,09,07,22,41,1.60
2012,09,07,22,42,1.60
2012,09,07,22,43,1.60
2012,09,07,22,45,1.60
2012,09,07,22,46,3.20
2012,09,07,22,47,3.20
2012,09,07,22,48,1.60
2012,09,07,22,49,1.60
2012,09,07,22,52,1.60
2012,09,07,22,53,1.60
2012,09,07,22,54,3.20
2012,09,07,22,59,1.60
2012,09,07,23,00,1.60
2012,09,07,23,02,1.60
2012,09,07,23,03,1.60
2012,09,07,23,04,1.60
2012,09,07,23,05,3.20
2012,09,07,23,06,3.20
2012,09,07,23,07,3.20
2012,09,07,23,08,3.20
2012,09,07,23,09,3.20
2012,09,07,23,10,3.20
2012,09,07,23,11,1.60
2012,09,07,23,13,1.60
2012,09,07,23,20,1.60
2012,09,07,23,24,1.60
2012,09,07,23,26,1.60
2012,09,07,23,27,3.20
2012,09,07,23,28,3.20
2012,09,07,23,29,3.20
2012,09,07,23,30,3.20
2012,09,07,23,31,3.20
2012,09,07,23,33,1.60
2012,09,07,23,34,1.60
2012,09,07,23,36,1.60
2012,09,07,23,39,1.60
2012,09,07,23,40,1.60
2012,09,07,23,42,1.60
2012,09,07,23,43,3.20
2012,09,07,23,44,3.20
2012,09,07,23,45,3.20
2012,09,07,23,46,1.60
2012,09,07,23,47,1.60
2012,09,07,23,48,3.20
2012,09,07,23,49,3.20
2012,09,07,23,50,1.60
2012,09,07,23,52,1.60
2012,09,07,23,53,3.20
2012,09,07,23,54,3.20
2012,09,07,23,55,1.60
2012,09,07,23,56,1.60
2012,09,07,23,58,1.60
2012,09,07,23,59,1.60
